ROMMA est une association bénévole à but non lucratif. Votre soutien est indispensable : ADHERER à ROMMA ou FAIRE un DON

Saint-Martin-d'Hères - (38, Isère)

Vallée du Grésivaudan (220 m)   Longitude: 05° 45' 05" E   Latitude: 45° 10' 02" N Station partenaire n°4
 

Détail journalier du     <<     >>

Température Precipitation Humidité Pression Vent Dir Rafale Dir. rafale Ensol.
Heure (°C) (mm) (%) (hPa) (km/h) (km/h) (min)
01:00 16.604799800---0
02:00 15.605699808SSE0
03:00 15.205799800---0
04:00 16.00489981---18S0
05:00 16.90499974SSO26SSO0
06:00 15.80569971SSO11S0
07:00 14.8063997015S0
08:00 14.706799700---0
09:00 15.60669971S10SSO0
10:00 16.20669973S13SSO0
11:00 17.70619971NO11SO0
12:00 19.70559961S15ONO10
13:00 21.90459961S15SSO40
14:00 22.80429951SSO15SSO40
15:00 21.50519952NNO18NNE20
16:00 20.60529962SO21NO0
17:00 21.10529964N24NNO0
18:00 20.7053996021N0
19:00 21.3051996011ONO40
20:00 19.8056996011O50
21:00
22:00
23:00
minuit

Graphique du 23-04-2019

 

Serveur OMMA